Starlink 32550

operational
NORAD ID: 62131 Int'l Des: 2024-222 Owner: SPXS Country: US Constellation: starlink
LEOCIRCULAR

About Starlink 32550

Description loading...

Live Position

Loading 3D Globe...

Upcoming Passes

Altitude History

Altitude vs Time

uPlot chart will show altitude changes over time

Two-Line Element Set

1 62131U 24222T 25349.71725222 .00014207 00000-0 52451-3 0 9990
2 62131 43.0008 250.6599 0000925 274.4666 85.6080 15.27598031 59953
Epoch: Dec 15, 2025 • Age: 23 hours

Current Status

Altitude 492.7 km
Velocity 7.62 km/s
Sub-Earth Point -35.93°S, 138.43°W
Launch Date Nov 27, 2024
Age 1 years
Type internet

Technical Details

Classification Payload
Mass 730.00 kg
Dry Mass 700.00 kg
Total Mass 730.00 kg
Length 0.30 m
Diameter 4.10 m
Span 29.00 m
Shape Box + pan
Manufacturer SPXS
Bus Type Starlink V2M
Phase Status In Orbit
Owner/State SPXS/US

Large Constellations

Loading constellations...